Weather History for NFNA - January, 2013

Change the Weather History Date:

Friday, January 18, 2013

  Actual Average Record
Temperature  
Mean Temperature 81 °F -  
Max Temperature 87 °F - - ()
Min Temperature 75 °F - - ()
Cooling Degree Days 16    
Growing Degree Days 31 (Base 50)    
Moisture  
Dew Point 75 °F    
Average Humidity 82    
Maximum Humidity 100    
Minimum Humidity 62    
Precipitation  
Precipitation 0.04 in - - ()
Sea Level Pressure  
Sea Level Pressure 29.66 in    
Wind  
Wind Speed 1 mph ()    
Max Wind Speed 9 mph    
Max Gust Speed -    
Visibility 12.0 miles    
Events      
T = Trace of Precipitation, MM = Missing Value Source: Averaged Metar Reports

Daily Weather History Graph

Daily Weather History Graph

Search for Another Location

Airport or City:

Trip Planner

Search our weather history database for the weather conditions in past years. The results will help you decide how hot, cold, wet, or windy it might be!

Date:

Astronomy

Jan. 18, 2013 Rise Set
Actual Time 6:44 AM FJST 7:47 PM FJST
Civil Twilight 6:20 AM FJST 8:11 PM FJST
Nautical Twilight 5:52 AM FJST 8:39 PM FJST
Astronomical Twilight 5:23 AM FJST 9:07 PM FJST
Moon 12:24 PM FJST (1/18) No Moon Set
Length of Visible Light 13h 51m
Length of Day
13h 03m
Waxing Crescent, 40% of the Moon is Illuminated
Jan 18
Waxing Crescent
Jan 19
First Quarter
Jan 27
Full
Feb 4
Last Quarter
Feb 10
New

Hourly Weather History & Observations

Time (FJST) Temp. Heat Index Dew Point Humidity Pressure Visibility Wind Dir Wind Speed Gust Speed Precip Events Conditions
12:00 AM 78.8 °F - 77.0 °F 94% 29.68 in 24.9 mi Calm Calm - N/A   Scattered Clouds
1:00 AM 77 °F - 76 °F 97% 29.68 in 12 mi Calm Calm - -   Partly Cloudy
1:00 AM 77.0 °F - 77.0 °F 100% 29.65 in 24.9 mi Calm Calm - N/A   Scattered Clouds
2:00 AM 77.0 °F - 75.2 °F 94% 29.65 in 24.9 mi Calm Calm - N/A   Mostly Cloudy
3:00 AM 77.0 °F - 75.2 °F 94% 29.62 in 24.9 mi Calm Calm - N/A   Scattered Clouds
4:00 AM 76 °F - 75 °F 97% 29.63 in 12 mi Calm Calm - -   Partly Cloudy
4:00 AM 77.0 °F - 75.2 °F 94% 29.62 in 24.9 mi Calm Calm - N/A   Scattered Clouds
5:00 AM 77.0 °F - 75.2 °F 94% 29.62 in 24.9 mi Calm Calm - N/A   Scattered Clouds
6:00 AM 75.2 °F - 75.2 °F 100% 29.65 in 24.9 mi Calm Calm - N/A   Scattered Clouds
7:00 AM 75 °F - 75 °F 99% 29.69 in 31 mi Calm Calm - -   Partly Cloudy
7:00 AM 75.2 °F - 75.2 °F 100% 29.68 in 31.1 mi Calm Calm - N/A   Mostly Cloudy
8:00 AM 77.0 °F - 75.2 °F 94% 29.68 in 31.1 mi Calm Calm - N/A   Scattered Clouds
9:00 AM 78.8 °F - 77.0 °F 94% 29.68 in 31.1 mi Calm Calm - N/A   Scattered Clouds
10:00 AM 83 °F - 74 °F 69% 29.71 in 31 mi SSE 4.6 mph - -   Partly Cloudy
10:00 AM 82.4 °F 89.5 °F 75.2 °F 79% 29.71 in 31.1 mi Calm Calm - N/A   Scattered Clouds
11:00 AM 86.0 °F 95.1 °F 75.2 °F 70% 29.68 in 31.1 mi SSE 9.2 mph - N/A   Scattered Clouds
12:00 PM 87.8 °F 97.6 °F 75.2 °F 66% 29.68 in 31.1 mi SE 9.2 mph - N/A   Scattered Clouds
1:00 PM 87 °F - 76 °F 62% 29.67 in 31 mi ESE 5.8 mph - -   Partly Cloudy
1:00 PM 87.8 °F 97.6 °F 75.2 °F 66% 29.65 in 31.1 mi ESE 5.8 mph - N/A   Scattered Clouds
2:00 PM 87.8 °F 97.6 °F 75.2 °F 66% 29.65 in 31.1 mi ESE 5.8 mph - N/A   Scattered Clouds
3:00 PM 87.8 °F 97.6 °F 75.2 °F 66% 29.62 in 31.1 mi ESE 5.8 mph - N/A   Scattered Clouds
4:00 PM 84 °F - 74 °F 64% 29.64 in 31 mi ESE 5.8 mph - -   Partly Cloudy
4:00 PM 84.2 °F 90.9 °F 73.4 °F 70% 29.62 in 31.1 mi ESE 5.8 mph - N/A   Mostly Cloudy
5:00 PM 84.2 °F 90.9 °F 73.4 °F 70% 29.62 in 31.1 mi ESE 5.8 mph - N/A   Mostly Cloudy
6:00 PM 84.2 °F 90.9 °F 73.4 °F 70% 29.62 in 31.1 mi Calm Calm - N/A   Scattered Clouds
7:00 PM 84 °F - 74 °F 64% 29.65 in 31 mi Calm Calm - -   Partly Cloudy
7:00 PM 84.2 °F 90.9 °F 73.4 °F 70% 29.65 in 31.1 mi Calm Calm - N/A   Scattered Clouds
8:00 PM 84.2 °F 90.9 °F 73.4 °F 70% 29.65 in 31.1 mi Calm Calm - N/A   Scattered Clouds
9:00 PM 82.4 °F 88.2 °F 73.4 °F 74% 29.68 in 31.1 mi Calm Calm - N/A   Scattered Clouds
10:00 PM 79 °F - 77 °F 92% 29.72 in 31 mi Calm Calm - -   Partly Cloudy
10:00 PM 78.8 °F - 77.0 °F 94% 29.71 in 31.1 mi Calm Calm - N/A   Scattered Clouds
11:00 PM 78.8 °F - 75.2 °F 89% 29.74 in 24.9 mi Calm Calm - N/A   Scattered Clouds